Погода в Смоляниново

Россия / Приморский край     43°16′50″N   132°27′10″E
темп.,
°C
ветер,
м/с
пор.,
м/с
влажн.,
%
обл.,
%
осадки,
мм/ч
давл.,
гПа
погр.,
м
14 мая, пт
пт1401:00+9вюв117477 0.0 101414
04:00+7в11803 0.0 101410
07:00+9вюв117710 0.0 101530
10:00+17юз125446 0.0 1014388
13:00+19зюз234995 0.0 1014578
16:00+18юз355298 0.0 1012521
19:00+14зюз1270100 0.0 1013109
22:00+11юв1179100 0.0 101428
15 мая, сб
сб1501:00+12ююв237199 0.0 101398
04:00+10юв248790 0.0 101286
07:00+12юв2685100 0.0 1011260
10:00+18ююз586638 0.0 1011969
13:00+21ююз585971 0.0 10081005
16:00+20ююз586348 0.0 1007834
19:00+15зюз248481 0.0 1008410
22:00+13ссз4986100 0.1 1011590
16 мая, вс
вс1601:00+11ссв2581100 0.1 1011262
04:00+11ссв2375100 0.1 1010134
07:00+11ссв1270100 0.0 101064
10:00+12ссв1269100 0.0 101071
13:00+14зюз1166100 0.0 1010153
16:00+13юз1171100 0.0 1009152
19:00+13юз1273100 0.0 100893
22:00+8ююз1190100 0.0 100913
17 мая, пн
пн1701:00+8в1193100 0.0 100811
04:00+8всв1187100 0.0 100712
07:00+10всв1172100 0.0 100629
10:00+18ссз1244100 0.0 1005504
13:00+21з3337100 0.0 10041522
16:00+19юз3444100 0.0 1003624
19:00+14ююз1261100 0.0 100489
22:00+11юв1162100 0.0 100513
18 мая, вт
вт1801:00+12вюв1157100 0.0 100511
04:00+11в1160100 0.0 100513
07:00+12в1163100 0.0 100620
10:00+19сз1147100 0.0 1006302
13:00+23зюз1141100 0.0 1005587
16:00+21юз2347100 0.0 1005405
19:00+17ююз116397 0.0 100668
22:00+11ююв11735 0.0 100915